Time,TemperatureF,DewpointF,PressureIn,WindDirection,WindDirectionDegrees,WindSpeedMPH,WindSpeedGustMPH,Humidity,HourlyPrecipIn,Conditions,Clouds,dailyrainin,SoftwareType,DateUTC
2013-03-08 00:04:00,20.8,15.0,30.32,ESE,114,3.0,-999.0,78,-99.99,,,0.00,weatherlink.com 1.10,2013-03-08 06:04:00,
2013-03-08 00:19:00,20.8,15.0,30.33,SE,129,4.0,-999.0,78,-99.99,,,0.00,weatherlink.com 1.10,2013-03-08 06:19:00,
2013-03-08 00:33:00,20.7,15.0,30.33,SSE,158,2.0,-999.0,79,-99.99,,,0.00,weatherlink.com 1.10,2013-03-08 06:33:00,
2013-03-08 00:47:00,20.6,15.0,30.32,ESE,122,5.0,-999.0,79,-99.99,,,0.00,weatherlink.com 1.10,2013-03-08 06:47:00,
2013-03-08 01:02:00,20.8,16.0,30.33,SE,142,3.0,-999.0,80,-99.99,,,0.00,weatherlink.com 1.10,2013-03-08 07:02:00,
2013-03-08 01:16:00,20.7,16.0,30.34,SE,127,2.0,-999.0,80,-99.99,,,0.00,weatherlink.com 1.10,2013-03-08 07:16:00,
2013-03-08 01:30:00,20.5,16.0,30.34,SE,124,4.0,-999.0,81,-99.99,,,0.00,weatherlink.com 1.10,2013-03-08 07:30:00,
2013-03-08 01:45:00,20.1,15.0,30.34,ESE,106,2.0,-999.0,81,-99.99,,,0.00,weatherlink.com 1.10,2013-03-08 07:45:00,
2013-03-08 01:59:00,19.8,15.0,30.34,SE,127,4.0,-999.0,82,-99.99,,,0.00,weatherlink.com 1.10,2013-03-08 07:59:00,
2013-03-08 02:13:00,19.8,15.0,30.34,ESE,121,4.0,-999.0,82,-99.99,,,0.00,weatherlink.com 1.10,2013-03-08 08:13:00,
2013-03-08 02:27:00,19.9,15.0,30.33,ESE,116,5.0,-999.0,82,-99.99,,,0.00,weatherlink.com 1.10,2013-03-08 08:27:00,
2013-03-08 02:41:00,19.8,15.0,30.33,SE,140,5.0,-999.0,83,-99.99,,,0.00,weatherlink.com 1.10,2013-03-08 08:41:00,
2013-03-08 02:56:00,19.8,15.0,30.32,ESE,116,5.0,-999.0,83,-99.99,,,0.00,weatherlink.com 1.10,2013-03-08 08:56:00,
2013-03-08 03:10:00,19.7,15.0,30.32,ESE,109,2.0,-999.0,83,-99.99,,,0.00,weatherlink.com 1.10,2013-03-08 09:10:00,
2013-03-08 03:24:00,19.5,15.0,30.32,East,87,1.0,-999.0,83,-99.99,,,0.00,weatherlink.com 1.10,2013-03-08 09:24:00,
2013-03-08 03:39:00,19.3,15.0,30.32,ESE,115,2.0,-999.0,84,-99.99,,,0.00,weatherlink.com 1.10,2013-03-08 09:39:00,
2013-03-08 03:53:00,19.0,15.0,30.32,East,79,1.0,-999.0,84,-99.99,,,0.00,weatherlink.com 1.10,2013-03-08 09:53:00,
2013-03-08 04:07:00,18.6,15.0,30.32,East,83,2.0,-999.0,84,-99.99,,,0.00,weatherlink.com 1.10,2013-03-08 10:07:00,
2013-03-08 04:22:00,18.3,14.0,30.33,East,83,0.0,-999.0,84,-99.99,,,0.00,weatherlink.com 1.10,2013-03-08 10:22:00,
2013-03-08 04:36:00,18.0,14.0,30.32,East,91,1.0,-999.0,85,-99.99,,,0.00,weatherlink.com 1.10,2013-03-08 10:36:00,
2013-03-08 04:50:00,17.9,14.0,30.33,East,91,1.0,-999.0,85,-99.99,,,0.00,weatherlink.com 1.10,2013-03-08 10:50:00,
2013-03-08 05:05:00,17.8,14.0,30.33,East,81,0.0,-999.0,85,-99.99,,,0.00,weatherlink.com 1.10,2013-03-08 11:05:00,
2013-03-08 05:19:00,17.6,14.0,30.33,East,82,1.0,-999.0,86,-99.99,,,0.00,weatherlink.com 1.10,2013-03-08 11:19:00,
2013-03-08 05:33:00,17.5,14.0,30.33,East,85,2.0,-999.0,86,-99.99,,,0.00,weatherlink.com 1.10,2013-03-08 11:33:00,
2013-03-08 05:48:00,17.5,14.0,30.33,East,85,1.0,-999.0,86,-99.99,,,0.00,weatherlink.com 1.10,2013-03-08 11:48:00,
2013-03-08 06:02:00,17.5,14.0,30.32,East,86,2.0,-999.0,86,-99.99,,,0.00,weatherlink.com 1.10,2013-03-08 12:02:00,
2013-03-08 06:17:00,17.6,14.0,30.33,ENE,73,2.0,-999.0,86,-99.99,,,0.00,weatherlink.com 1.10,2013-03-08 12:17:00,
2013-03-08 06:31:00,17.6,14.0,30.33,ENE,73,1.0,-999.0,86,-99.99,,,0.00,weatherlink.com 1.10,2013-03-08 12:31:00,
2013-03-08 06:45:00,17.7,14.0,30.33,East,90,1.0,-999.0,87,-99.99,,,0.00,weatherlink.com 1.10,2013-03-08 12:45:00,
2013-03-08 06:59:00,17.7,14.0,30.33,East,92,2.0,-999.0,86,-99.99,,,0.00,weatherlink.com 1.10,2013-03-08 12:59:00,
2013-03-08 07:14:00,18.0,15.0,30.33,East,80,1.0,-999.0,87,-99.99,,,0.00,weatherlink.com 1.10,2013-03-08 13:14:00,
2013-03-08 07:28:00,18.2,15.0,30.32,East,100,1.0,-999.0,87,-99.99,,,0.00,weatherlink.com 1.10,2013-03-08 13:28:00,
2013-03-08 07:42:00,18.8,16.0,30.32,ENE,77,1.0,-999.0,87,-99.99,,,0.00,weatherlink.com 1.10,2013-03-08 13:42:00,
2013-03-08 07:56:00,19.3,16.0,30.32,ESE,103,3.0,-999.0,87,-99.99,,,0.00,weatherlink.com 1.10,2013-03-08 13:56:00,
2013-03-08 08:11:00,20.3,17.0,30.32,ESE,110,4.0,-999.0,86,-99.99,,,0.00,weatherlink.com 1.10,2013-03-08 14:11:00,
2013-03-08 08:25:00,21.1,17.0,30.32,ESE,112,4.0,-999.0,85,-99.99,,,0.00,weatherlink.com 1.10,2013-03-08 14:25:00,
2013-03-08 08:39:00,21.8,17.0,30.31,SE,135,5.0,-999.0,83,-99.99,,,0.00,weatherlink.com 1.10,2013-03-08 14:39:00,
2013-03-08 08:54:00,22.3,18.0,30.32,SE,134,5.0,-999.0,83,-99.99,,,0.00,weatherlink.com 1.10,2013-03-08 14:54:00,
2013-03-08 09:08:00,22.9,18.0,30.33,ESE,115,4.0,-999.0,82,-99.99,,,0.00,weatherlink.com 1.10,2013-03-08 15:08:00,
2013-03-08 09:22:00,23.6,19.0,30.32,ESE,119,7.0,-999.0,81,-99.99,,,0.00,weatherlink.com 1.10,2013-03-08 15:22:00,
2013-03-08 09:37:00,24.2,19.0,30.31,SSE,161,4.0,-999.0,80,-99.99,,,0.00,weatherlink.com 1.10,2013-03-08 15:37:00,
2013-03-08 09:51:00,24.8,20.0,30.32,East,100,5.0,-999.0,80,-99.99,,,0.00,weatherlink.com 1.10,2013-03-08 15:51:00,
2013-03-08 10:06:00,26.3,21.0,30.32,SSE,152,4.0,-999.0,79,-99.99,,,0.00,weatherlink.com 1.10,2013-03-08 16:06:00,
2013-03-08 10:20:00,27.0,21.0,30.31,ESE,114,5.0,-999.0,78,-99.99,,,0.00,weatherlink.com 1.10,2013-03-08 16:20:00,
2013-03-08 10:34:00,27.2,21.0,30.31,ESE,114,6.0,-999.0,77,-99.99,,,0.01,weatherlink.com 1.10,2013-03-08 16:34:00,
2013-03-08 10:48:00,27.7,21.0,30.31,ESE,102,5.0,-999.0,77,-99.99,,,0.01,weatherlink.com 1.10,2013-03-08 16:48:00,
2013-03-08 11:03:00,28.4,22.0,30.31,SE,135,5.0,-999.0,76,-99.99,,,0.01,weatherlink.com 1.10,2013-03-08 17:03:00,
2013-03-08 11:17:00,29.3,23.0,30.31,ENE,73,5.0,-999.0,76,-99.99,,,0.01,weatherlink.com 1.10,2013-03-08 17:17:00,
2013-03-08 11:32:00,30.4,24.0,30.30,ENE,66,4.0,-999.0,76,-99.99,,,0.01,weatherlink.com 1.10,2013-03-08 17:32:00,
2013-03-08 11:46:00,30.7,24.0,30.30,ESE,120,5.0,-999.0,75,-99.99,,,0.02,weatherlink.com 1.10,2013-03-08 17:46:00,
2013-03-08 12:00:00,31.3,24.0,30.29,ESE,108,5.0,-999.0,75,-99.99,,,0.02,weatherlink.com 1.10,2013-03-08 18:00:00,
2013-03-08 12:15:00,32.2,25.0,30.29,ESE,103,3.0,-999.0,74,-99.99,,,0.02,weatherlink.com 1.10,2013-03-08 18:15:00,
2013-03-08 12:29:00,32.9,25.0,30.29,SE,133,6.0,-999.0,72,-99.99,,,0.03,weatherlink.com 1.10,2013-03-08 18:29:00,
2013-03-08 12:44:00,33.2,25.0,30.28,ESE,112,6.0,-999.0,73,-99.99,,,0.03,weatherlink.com 1.10,2013-03-08 18:44:00,
2013-03-08 12:58:00,33.5,25.0,30.27,SE,125,6.0,-999.0,72,-99.99,,,0.03,weatherlink.com 1.10,2013-03-08 18:58:00,
2013-03-08 13:12:00,34.4,26.0,30.26,ESE,118,5.0,-999.0,71,-99.99,,,0.03,weatherlink.com 1.10,2013-03-08 19:12:00,
2013-03-08 13:27:00,34.8,26.0,30.25,East,100,4.0,-999.0,70,-99.99,,,0.03,weatherlink.com 1.10,2013-03-08 19:27:00,
2013-03-08 13:41:00,35.2,26.0,30.25,East,79,5.0,-999.0,70,-99.99,,,0.04,weatherlink.com 1.10,2013-03-08 19:41:00,
2013-03-08 13:55:00,35.7,27.0,30.24,ESE,104,5.0,-999.0,69,-99.99,,,0.04,weatherlink.com 1.10,2013-03-08 19:55:00,
2013-03-08 14:10:00,36.1,27.0,30.24,SE,144,9.0,-999.0,69,-99.99,,,0.04,weatherlink.com 1.10,2013-03-08 20:10:00,
2013-03-08 14:24:00,36.5,27.0,30.24,ESE,120,4.0,-999.0,68,-99.99,,,0.04,weatherlink.com 1.10,2013-03-08 20:24:00,
2013-03-08 14:38:00,36.4,27.0,30.24,SE,141,6.0,-999.0,69,-99.99,,,0.04,weatherlink.com 1.10,2013-03-08 20:38:00,
2013-03-08 14:52:00,36.9,27.0,30.24,East,97,6.0,-999.0,68,-99.99,,,0.04,weatherlink.com 1.10,2013-03-08 20:52:00,
2013-03-08 15:07:00,36.8,28.0,30.24,ESE,109,7.0,-999.0,69,-99.99,,,0.04,weatherlink.com 1.10,2013-03-08 21:07:00,
2013-03-08 15:21:00,36.7,27.0,30.24,SE,126,10.0,-999.0,69,-99.99,,,0.04,weatherlink.com 1.10,2013-03-08 21:21:00,
2013-03-08 15:35:00,37.2,28.0,30.24,East,99,3.0,-999.0,69,-99.99,,,0.04,weatherlink.com 1.10,2013-03-08 21:35:00,
2013-03-08 15:50:00,36.9,28.0,30.23,ENE,78,4.0,-999.0,70,-99.99,,,0.04,weatherlink.com 1.10,2013-03-08 21:50:00,
2013-03-08 16:04:00,37.4,28.0,30.23,NE,50,4.0,-999.0,69,-99.99,,,0.04,weatherlink.com 1.10,2013-03-08 22:04:00,
2013-03-08 16:18:00,37.0,28.0,30.23,East,84,5.0,-999.0,70,-99.99,,,0.04,weatherlink.com 1.10,2013-03-08 22:18:00,
2013-03-08 16:32:00,36.7,28.0,30.22,ENE,77,5.0,-999.0,71,-99.99,,,0.04,weatherlink.com 1.10,2013-03-08 22:32:00,
2013-03-08 16:47:00,36.6,28.0,30.22,East,89,6.0,-999.0,71,-99.99,,,0.04,weatherlink.com 1.10,2013-03-08 22:47:00,
2013-03-08 17:01:00,36.5,28.0,30.22,ENE,60,6.0,-999.0,72,-99.99,,,0.04,weatherlink.com 1.10,2013-03-08 23:01:00,
2013-03-08 17:15:00,36.6,28.0,30.22,East,89,4.0,-999.0,72,-99.99,,,0.04,weatherlink.com 1.10,2013-03-08 23:15:00,
2013-03-08 17:29:00,36.4,29.0,30.21,East,89,5.0,-999.0,73,-99.99,,,0.04,weatherlink.com 1.10,2013-03-08 23:29:00,
2013-03-08 17:44:00,36.1,29.0,30.21,ENE,72,3.0,-999.0,74,-99.99,,,0.04,weatherlink.com 1.10,2013-03-08 23:44:00,
2013-03-08 17:58:00,35.8,29.0,30.21,SE,125,6.0,-999.0,75,-99.99,,,0.04,weatherlink.com 1.10,2013-03-08 23:58:00,
2013-03-08 18:13:00,35.4,28.0,30.21,ENE,71,4.0,-999.0,75,-99.99,,,0.04,weatherlink.com 1.10,2013-03-09 00:13:00,
2013-03-08 18:27:00,35.0,29.0,30.21,ENE,68,4.0,-999.0,77,-99.99,,,0.04,weatherlink.com 1.10,2013-03-09 00:27:00,
2013-03-08 18:41:00,34.6,28.0,30.20,ENE,77,4.0,-999.0,77,-99.99,,,0.04,weatherlink.com 1.10,2013-03-09 00:41:00,
2013-03-08 18:55:00,34.4,28.0,30.20,ENE,75,5.0,-999.0,78,-99.99,,,0.04,weatherlink.com 1.10,2013-03-09 00:55:00,
2013-03-08 19:10:00,34.2,28.0,30.18,ENE,64,5.0,-999.0,79,-99.99,,,0.04,weatherlink.com 1.10,2013-03-09 01:10:00,
2013-03-08 19:24:00,34.2,28.0,30.17,East,91,4.0,-999.0,79,-99.99,,,0.04,weatherlink.com 1.10,2013-03-09 01:24:00,
2013-03-08 19:38:00,34.1,28.0,30.17,East,90,6.0,-999.0,79,-99.99,,,0.04,weatherlink.com 1.10,2013-03-09 01:38:00,
2013-03-08 19:53:00,34.1,29.0,30.16,ENE,77,9.0,-999.0,80,-99.99,,,0.04,weatherlink.com 1.10,2013-03-09 01:53:00,
2013-03-08 20:07:00,34.2,28.0,30.15,ESE,103,5.0,-999.0,79,-99.99,,,0.04,weatherlink.com 1.10,2013-03-09 02:07:00,
2013-03-08 20:21:00,34.4,29.0,30.16,ENE,78,7.0,-999.0,79,-99.99,,,0.04,weatherlink.com 1.10,2013-03-09 02:21:00,
2013-03-08 20:36:00,34.4,29.0,30.14,ENE,69,3.0,-999.0,79,-99.99,,,0.04,weatherlink.com 1.10,2013-03-09 02:36:00,
2013-03-08 20:50:00,34.4,29.0,30.14,East,86,4.0,-999.0,79,-99.99,,,0.04,weatherlink.com 1.10,2013-03-09 02:50:00,
2013-03-08 21:04:00,34.4,29.0,30.13,East,80,6.0,-999.0,79,-99.99,,,0.04,weatherlink.com 1.10,2013-03-09 03:04:00,
2013-03-08 21:18:00,34.4,29.0,30.14,East,87,5.0,-999.0,79,-99.99,,,0.04,weatherlink.com 1.10,2013-03-09 03:18:00,
2013-03-08 21:33:00,34.3,28.0,30.12,East,80,4.0,-999.0,79,-99.99,,,0.04,weatherlink.com 1.10,2013-03-09 03:33:00,
2013-03-08 21:47:00,34.2,28.0,30.12,ESE,111,3.0,-999.0,79,-99.99,,,0.04,weatherlink.com 1.10,2013-03-09 03:47:00,
2013-03-08 22:01:00,34.4,29.0,30.12,ESE,102,6.0,-999.0,79,-99.99,,,0.04,weatherlink.com 1.10,2013-03-09 04:01:00,
2013-03-08 22:15:00,34.6,28.0,30.12,ESE,102,6.0,-999.0,78,-99.99,,,0.04,weatherlink.com 1.10,2013-03-09 04:15:00,
2013-03-08 22:30:00,34.7,29.0,30.11,East,87,7.0,-999.0,78,-99.99,,,0.04,weatherlink.com 1.10,2013-03-09 04:30:00,
2013-03-08 22:44:00,34.7,29.0,30.11,East,98,3.0,-999.0,78,-99.99,,,0.04,weatherlink.com 1.10,2013-03-09 04:44:00,
2013-03-08 22:58:00,34.8,28.0,30.10,SE,131,6.0,-999.0,77,-99.99,,,0.04,weatherlink.com 1.10,2013-03-09 04:58:00,
2013-03-08 23:12:00,34.8,29.0,30.09,East,91,4.0,-999.0,78,-99.99,,,0.04,weatherlink.com 1.10,2013-03-09 05:12:00,
2013-03-08 23:27:00,34.7,28.0,30.09,ESE,104,3.0,-999.0,77,-99.99,,,0.04,weatherlink.com 1.10,2013-03-09 05:27:00,
2013-03-08 23:41:00,34.8,28.0,30.09,SSE,152,5.0,-999.0,77,-99.99,,,0.04,weatherlink.com 1.10,2013-03-09 05:41:00,
2013-03-08 23:55:00,34.7,28.0,30.09,ESE,102,11.0,-999.0,77,-99.99,,,0.04,weatherlink.com 1.10,2013-03-09 05:55:00,